Hannover, Germany

1:13 PM CET on December 04, 2016 (GMT +0100)
Hannover | | Change Station

Elev 180 ft 52.47 °N, 9.68 °E | Updated 23 minutes ago

Clear
Clear
36 °F
Feels Like 33 °F
N
4
Wind Variable Wind from ESE

Today
High -- | Low -- °F
--% Chance of Precip.
Yesterday
High -- | Low -- °F
Precip. -- in
Pressure 30.42 in
Visibility -9999.0 miles
Clouds
Windchill 33 °F
Dew Point 30 °F
Humidity 81%
Rainfall 0.00 in
Snow Depth Not available.
8:13 AM 4:09 PM
Waxing Crescent, 22% visible
METAR EDDV 041150Z 11003KT 070V140 CAVOK 02/M01 Q1030 NOSIG
Pressure 30.42 in
Visibility -9999.0 miles
Clouds
Windchill 33 °F
Dew Point 30 °F
Humidity 81%
Rainfall 0.00 in
Snow Depth Not available.
8:13 AM 4:09 PM
Waxing Crescent, 22% visible
METAR EDDV 041150Z 11003KT 070V140 CAVOK 02/M01 Q1030 NOSIG

10-Day Weather Forecast

×

Almanac

Astronomy

Dec. 04, 2016 Rise Set
Actual Time
Civil Twilight
Nautical Twilight
Astronomical Twilight
Moon
Length of Visible Light
Length of Day
Tomorrow will be .
, % of the Moon is Illuminated

Today's Extremes

Country Highs Country Lows

Community

WunderPhotos

Upload Photos

1,955,591 photos uploaded!

WunderBlog® & News

Nearby

Air Quality

  Air Quality AQ Index Pollutant
Not available.

Snow Depth

Station Depth Elevation

Earthquake Activity

City Distance Mag. Time & Date
Minimum magnitude displayed is 2.5.

Coastal Water Temperatures

Place Temperature

Stations

Nearby Weather Stations

Station Location Temp. Windchill Dew Point Humidity Wind Precip. Elev Updated Type